User: anonymous
Location: Oshawa
(43.9000°N, 78.8670°W)
Time: 14:15:38
(UTC-04:00)
Language:

CARTOSAT-1 - Orbit

View from above orbital plane
View from above orbital plane
View from above satellite
View from above satellite

Ground track
Ground track

The orbit data is extracted from the following two-line orbital elements,

1 28649U 05017A   14204.14949873  .00000333  00000-0  46877-4 0  4303
2 28649 097.8319 277.4390 0001225 132.3573 227.7744 14.83471385498822
Epoch (UTC): 23 July 2014 03:35:16
Eccentricity: 0.0001225
inclination: 97.8319°
perigee height: 617 km
apogee height: 619 km
right ascension of ascending node: 277.4390°
argument of perigee: 132.3573°
revolutions per day: 14.83471385
mean anomaly at epoch: 227.7744°
orbit number at epoch: 49882

The dashed part of the orbit path shows where the satellite is in the earth's shadow,  

DLR